[[{"header":{"parameterUnit":"m.s-1","parameterCategory":1,"la1":30.2991,"la2":30.254,"lo1":-89.0895,"lo2":-89.0444,"dy":0.0017,"dx":0.0017,"nx":28,"ny":28,"refTime":"2023-08-17T03:00:00:Z","depth":0,"parameterNumber":2,"parameterNumberName":"U-component_of_WINDS"},"data":[0,0,0,0,0,0,0,0,0,0,0,0,0,0,0,0,0,0,0,0,0,0,0,0,0,0,0,0,0,0,0,0,0,0,0,0,0,0,0,0,0,0,0,0,0,0,0,0,0,0,0,0,0,0,0,0,0,0,1.0982,1.0984,0,1.1122,1.1124,1.1125,1.1163,1.1162,1.1161,1.116,1.1308,1.1313,1.1318,0,0,0,0,0,0,0,0,0,0,0,0,0,1.0752,1.0756,1.0982,1.0984,1.0986,1.1122,1.1124,1.1126,1.1163,1.1162,1.1161,1.116,1.1307,1.1312,1.1318,0,0,0,0,0,0,0,0,0,0,0,0,0,1.0868,1.0757,1.0982,1.1021,1.1025,1.1121,1.1124,1.1126,1.1163,1.1162,1.1161,1.116,1.1305,1.1312,1.1319,1.1388,0,0,1.134,1.1343,0,0,0,0,0,0,0,0,1.0861,1.0876,1.1013,1.1018,1.1024,1.1124,1.1097,1.1214,1.1164,1.1111,1.116,1.1159,1.1248,1.126,1.1289,1.1395,1.1401,1.1341,1.1345,1.1348,1.135,0,0,0,0,0,0,0,1.0853,1.087,1.1038,1.1015,1.1022,1.1032,1.1047,1.1119,1.1185,1.1116,1.1119,1.1134,1.1251,1.1282,1.1293,1.1403,1.1341,1.1347,1.1352,1.1354,1.1572,1.1574,0,0,0,0,0,0,1.0838,1.0863,1.1033,1.1042,1.0937,1.1037,1.1054,1.1093,1.1184,1.1197,1.1135,1.1136,1.1271,1.1284,1.1298,1.1385,1.1348,1.1355,1.1359,1.1571,1.1573,1.1574,0,0,0,0,0,0,1.0833,1.0852,1.1028,1.0954,1.0977,1.1043,1.1086,1.1096,1.1128,1.1199,1.1212,1.1155,1.127,1.1288,1.1365,1.139,1.1358,1.1365,1.1569,1.1571,1.1574,1.1558,0,0,0,0,0,0,1.0826,1.085,1.0876,1.0954,1.098,1.1091,1.1087,1.11,1.1139,1.1141,1.1221,1.1233,1.1271,1.1354,1.1372,1.14,1.137,1.1567,1.157,1.1573,1.1557,1.156,1.1562,0,0,0,0,0,1.0817,1.0867,1.0877,1.0898,1.1014,1.1092,1.1107,1.1148,1.1141,1.1168,1.1214,1.123,1.1384,1.1362,1.1382,1.1412,1.1566,1.1569,1.1573,1.1556,1.1559,1.1562,0,0,0,0,0,0,1.0793,1.0878,1.089,1.0967,1.1021,1.1098,1.1134,1.1151,1.121,1.121,1.1259,1.1277,1.135,1.1389,1.1362,1.1484,1.1476,1.1483,1.1456,1.146,1.1462,1.1452,1.1376,0,0,0,0,0,1.0796,1.0851,1.0923,1.0984,1.101,1.1067,1.1103,1.1129,1.1189,1.1213,1.1265,1.1323,1.1385,1.1424,1.1485,1.1562,1.1581,1.1593,1.1596,1.1598,1.1604,1.1648,1.1655,1.1586,1.1586,1.1586,0,0,1.0804,1.0857,1.0889,1.098,1.1026,1.1083,1.1087,1.1147,1.119,1.1223,1.1297,1.1337,1.1406,1.1483,1.152,1.1518,1.1627,1.1602,1.1603,1.1609,1.1652,1.1659,1.1664,1.1588,1.1588,1.1587,0,0,1.0847,1.0892,1.0948,1.0993,1.1062,1.1099,1.1112,1.1186,1.1213,1.1289,1.1315,1.1367,1.1472,1.152,1.1558,1.1618,1.1636,1.1637,1.1652,1.1694,1.1699,1.1704,1.1726,1.1733,1.1643,1.1643,1.1643,0,1.0848,1.0933,1.0974,1.1033,1.1072,1.1103,1.116,1.1202,1.1288,1.1315,1.1311,1.1443,1.1491,1.158,1.1594,1.1624,1.1641,1.1628,1.1695,1.17,1.1706,1.1727,1.1735,1.1643,1.1643,1.1643,1.1643,0,1.0932,1.0991,1.1027,1.1107,1.1151,1.1208,1.1259,1.1299,1.1321,1.1359,1.1436,1.1495,1.1568,1.1591,1.1615,1.1683,1.168,1.1685,1.1677,1.1711,1.1732,1.174,1.1642,1.1642,1.1642,1.1642,0,0,1.0964,1.1065,1.1077,1.1114,1.1192,1.1239,1.1298,1.1368,1.1401,1.1459,1.151,1.1598,1.1602,1.1645,1.1675,1.1711,1.1755,1.1712,1.1715,1.1718,1.1835,1.183,1.1839,1.1767,1.1769,1.177,1.1829,0,1.1016,1.1121,1.116,1.1247,1.1302,1.1332,1.1383,1.1437,1.1474,1.1527,1.1569,1.163,1.1632,1.1658,1.1696,1.1742,1.1779,1.1738,1.1816,1.1819,1.1798,1.185,1.1846,1.1898,1.1837,1.1839,1.184,0,1.1092,1.1149,1.1241,1.1311,1.1336,1.1381,1.1448,1.1498,1.156,1.1585,1.1632,1.1659,1.1723,1.1711,1.1801,1.1772,1.1806,1.1833,1.1836,1.1845,1.1831,1.186,1.1916,1.1924,1.1853,1.1852,1.1851,0,1.1106,1.1206,1.1274,1.1304,1.1388,1.1419,1.1456,1.1516,1.1556,1.1615,1.1641,1.1707,1.1743,1.1794,1.1838,1.1826,1.1924,1.1916,1.1947,1.1945,1.1966,1.1964,1.2028,1.1988,1.1988,1.1988,1.1988,0,1.116,1.1216,1.1281,1.1322,1.1385,1.1429,1.1491,1.153,1.1583,1.1634,1.1664,1.1711,1.1766,1.1821,1.1856,1.1924,1.1941,1.1963,1.1971,1.196,1.1957,1.1983,1.1981,1.199,1.1989,1.1989,1.1989,0,1.1186,1.1232,1.1308,1.1381,1.1401,1.1444,1.1507,1.1549,1.1587,1.1651,1.1668,1.1728,1.1794,1.1843,1.1928,1.1952,1.2025,1.2034,1.2003,1.2008,1.2036,1.2032,1.2119,1.2132,1.2083,1.2083,1.2083,0,1.1218,1.1261,1.1338,1.1373,1.141,1.1466,1.1506,1.1552,1.1592,1.1665,1.1699,1.1766,1.1823,1.1926,1.1978,1.2044,1.2055,1.208,1.2065,1.2052,1.2055,1.2052,1.2056,1.2083,1.2083,1.2083,1.2083,0,1.127,1.129,1.1346,1.141,1.1456,1.1509,1.1562,1.159,1.1645,1.1689,1.1755,1.1799,1.1885,1.1952,1.2022,1.2062,1.2082,1.2088,1.2098,1.2087,1.2067,1.2078,1.2009,1.2086,1.2085,1.2085,1.2085,1.2085,1.13,1.1339,1.14,1.1461,1.1505,1.1554,1.1597,1.164,1.1696,1.1768,1.1792,1.1861,1.1922,1.2019,1.2059,1.2114,1.2114,1.2129,1.2133,1.2136,1.2135,1.2058,1.2127,1.2127,1.2127,1.2127,1.2127,0,1.1353,1.1393,1.1449,1.1522,1.157,1.1583,1.1643,1.1682,1.1742,1.1797,1.1851,1.1928,1.1992,1.2049,1.2116,1.215,1.2161,1.2166,1.2164,1.2173,1.2131,1.2115,1.2156,1.2156,1.2156,1.2156,1.2156,1.2156,1.1386,1.1454,1.1481,1.1571,1.1611,1.1678,1.171,1.1756,1.18,1.1883,1.1936,1.1972,1.2028,1.21,1.216,1.2175,1.2199,1.2201,1.2219,1.2179,1.2176,1.2172,1.2157,1.2206,1.2206,1.2255,1.2256,1.2256]},{"header":{"parameterUnit":"m.s-1","parameterCategory":1,"la1":30.2991,"la2":30.254,"lo1":-89.0895,"lo2":-89.0444,"dy":0.0017,"dx":0.0017,"nx":28,"ny":28,"refTime":"2023-08-17T03:00:00:Z","depth":0,"parameterNumber":3,"parameterNumberName":"V-component_of_WINDS"},"data":[0,0,0,0,0,0,0,0,0,0,0,0,0,0,0,0,0,0,0,0,0,0,0,0,0,0,0,0,0,0,0,0,0,0,0,0,0,0,0,0,0,0,0,0,0,0,0,0,0,0,0,0,0,0,0,0,0,0,4.2227,4.2227,0,4.2301,4.2302,4.2303,4.2286,4.2285,4.2283,4.2282,4.2355,4.2358,4.2362,0,0,0,0,0,0,0,0,0,0,0,0,0,4.2063,4.2066,4.2226,4.2227,4.2228,4.2301,4.2302,4.2303,4.2286,4.2285,4.2283,4.2281,4.2354,4.2358,4.2362,0,0,0,0,0,0,0,0,0,0,0,0,0,4.2135,4.2067,4.2226,4.2229,4.223,4.2301,4.2302,4.2303,4.2287,4.2285,4.2282,4.228,4.2353,4.2358,4.2362,4.2435,0,0,4.2377,4.2379,0,0,0,0,0,0,0,0,4.2131,4.2141,4.2227,4.2229,4.223,4.2282,4.2271,4.2347,4.2287,4.2265,4.2282,4.2279,4.2332,4.2339,4.2357,4.2438,4.2441,4.2378,4.2381,4.2383,4.2384,0,0,0,0,0,0,0,4.2126,4.2138,4.2256,4.2229,4.223,4.2224,4.2232,4.2286,4.2309,4.2267,4.2266,4.2275,4.2333,4.2353,4.2359,4.2442,4.2378,4.2382,4.2385,4.2387,4.258,4.2582,0,0,0,0,0,0,4.2121,4.2134,4.2254,4.2258,4.2174,4.2229,4.2238,4.2268,4.2309,4.2313,4.2277,4.2274,4.2345,4.2353,4.2361,4.2445,4.2383,4.2387,4.239,4.2578,4.258,4.2583,0,0,0,0,0,0,4.2117,4.2132,4.2251,4.2196,4.221,4.2234,4.2267,4.227,4.229,4.2316,4.232,4.2293,4.2344,4.2355,4.2415,4.2447,4.239,4.2394,4.2575,4.2578,4.2581,4.2614,0,0,0,0,0,0,4.2113,4.213,4.216,4.2197,4.2213,4.2305,4.227,4.2273,4.2299,4.2296,4.2333,4.2337,4.2343,4.2408,4.242,4.2453,4.2398,4.2572,4.2577,4.258,4.261,4.2618,4.2625,0,0,0,0,0,4.2107,4.2167,4.2162,4.2176,4.2251,4.2307,4.2317,4.2324,4.2302,4.233,4.2346,4.2336,4.2442,4.2415,4.2428,4.2462,4.257,4.2575,4.258,4.2607,4.2616,4.2624,0,0,0,0,0,0,4.2134,4.2172,4.2167,4.2241,4.2271,4.2304,4.2341,4.2335,4.2371,4.2367,4.2373,4.2381,4.2442,4.2459,4.2427,4.2531,4.2503,4.251,4.2518,4.2528,4.2535,4.2528,4.2402,0,0,0,0,0,4.2148,4.2192,4.2223,4.2285,4.23,4.2318,4.2343,4.2345,4.2376,4.2389,4.241,4.2439,4.2478,4.2504,4.2543,4.2613,4.2618,4.2643,4.265,4.2656,4.2662,4.2695,4.2705,4.2599,4.2599,4.2599,0,0,4.2179,4.2205,4.2232,4.2291,4.2314,4.2357,4.2329,4.2377,4.2407,4.2396,4.2453,4.247,4.2502,4.2567,4.2596,4.2582,4.2692,4.2662,4.2666,4.2669,4.2701,4.2711,4.272,4.2602,4.2602,4.2601,0,0,4.2255,4.2281,4.2333,4.2357,4.2393,4.2403,4.2416,4.245,4.246,4.2518,4.2509,4.2544,4.2614,4.2636,4.2656,4.2736,4.2726,4.2749,4.2786,4.2818,4.2826,4.2834,4.2858,4.2867,4.2755,4.2755,4.2755,0,4.2288,4.2354,4.2361,4.2408,4.2431,4.2423,4.2473,4.2496,4.2542,4.2557,4.2542,4.2625,4.2647,4.2714,4.2733,4.2752,4.2763,4.2744,4.2825,4.2832,4.2839,4.2862,4.2872,4.2757,4.2757,4.2757,4.2757,0,4.2389,4.2435,4.2472,4.2516,4.2544,4.2593,4.2605,4.2632,4.2631,4.2642,4.2699,4.2725,4.2765,4.2782,4.2783,4.2848,4.2837,4.2824,4.2794,4.2851,4.2873,4.2882,4.276,4.276,4.2759,4.2758,0,0,4.2486,4.2531,4.2544,4.2561,4.2598,4.2632,4.2679,4.2719,4.274,4.2772,4.2808,4.2865,4.285,4.2873,4.2876,4.2905,4.296,4.2886,4.2887,4.2896,4.3028,4.3037,4.3047,4.2955,4.2956,4.2958,4.3024,0,4.2563,4.2645,4.2651,4.2724,4.2763,4.2754,4.2793,4.2819,4.283,4.2863,4.2874,4.2913,4.2894,4.2906,4.2935,4.2948,4.2986,4.2943,4.2985,4.2987,4.2974,4.3059,4.3069,4.3131,4.3033,4.3035,4.3036,0,4.2664,4.2696,4.2773,4.28,4.2817,4.2853,4.2887,4.292,4.2947,4.2952,4.2976,4.2973,4.3017,4.2988,4.3046,4.3016,4.3034,4.3042,4.3045,4.3047,4.3013,4.306,4.3151,4.3159,4.305,4.3049,4.3048,0,4.2721,4.2785,4.2837,4.2853,4.2887,4.2912,4.2927,4.2952,4.2974,4.3004,4.3017,4.3052,4.307,4.3096,4.3101,4.3079,4.3157,4.313,4.316,4.316,4.3176,4.3174,4.3267,4.3192,4.3192,4.3192,4.3192,0,4.2804,4.285,4.2863,4.2895,4.2945,4.295,4.2999,4.3012,4.3034,4.3066,4.3061,4.3091,4.3097,4.3128,4.3133,4.3177,4.3187,4.319,4.319,4.3189,4.3188,4.3199,4.3193,4.3194,4.3194,4.3193,4.3193,0,4.2876,4.2887,4.2943,4.2969,4.2977,4.3012,4.3034,4.3063,4.3072,4.3113,4.3123,4.3137,4.3172,4.318,4.3223,4.3226,4.3278,4.3275,4.3269,4.3267,4.3296,4.3292,4.3397,4.3409,4.3329,4.333,4.3331,0,4.2927,4.2962,4.2991,4.3012,4.3028,4.3063,4.3085,4.309,4.3112,4.3143,4.3167,4.3202,4.323,4.3286,4.3299,4.3331,4.3327,4.3361,4.3331,4.3327,4.3323,4.3319,4.3321,4.3366,4.3367,4.3368,4.3368,0,4.3015,4.3017,4.3049,4.3081,4.3107,4.3133,4.3158,4.3175,4.3183,4.3208,4.3244,4.3265,4.3307,4.334,4.3371,4.3384,4.3376,4.3378,4.3386,4.3384,4.3377,4.3377,4.328,4.3375,4.3374,4.3374,4.3373,4.3373,4.3075,4.3104,4.3127,4.3162,4.318,4.3202,4.323,4.3241,4.3272,4.3306,4.3307,4.3345,4.3366,4.3407,4.3421,4.345,4.3439,4.3451,4.3454,4.3456,4.3457,4.3374,4.3456,4.3455,4.3455,4.3455,4.3455,0,4.3159,4.3173,4.3205,4.3238,4.3264,4.3255,4.328,4.3302,4.3336,4.3357,4.3384,4.3422,4.3453,4.3468,4.3498,4.3517,4.3514,4.3524,4.3522,4.3524,4.3467,4.3455,4.3526,4.3526,4.3526,4.3526,4.3526,4.3526,4.3206,4.3252,4.3257,4.3311,4.3324,4.3361,4.3376,4.3395,4.3411,4.3455,4.348,4.3489,4.3507,4.3537,4.3564,4.3567,4.3577,4.3588,4.359,4.3536,4.3528,4.3521,4.351,4.3591,4.3591,4.3643,4.3644,4.3644]}]]